Regional Weather Roundup
Issued by NWS Sioux Falls, SD

Home | Current Version | Previous Version | Text Only | Print | Product List | Glossary On
Versions: 1 2 3 4 5 6 7 8 9 10 11 12 13 14 15 16 17 18 19 20 21 22 23 24 25 26 27 28 29 30 31 32 33 34 35 36 37 38 39 40 41 42 43 44 45 46 47 48 49 50
503
ASUS43 KFSD 300110
RWRFSD

WEATHER ROUNDUP FOR SE SOUTH DAKOTA/SW MINNESOTA/NW IOWA
NATIONAL WEATHER SERVICE SIOUX FALLS SD
800 PM CDT THU SEP 29 2016

NOTE: "FAIR" INDICATES FEW OR NO CLOUDS BELOW 12,000 FEET WITH NO
SIGNIFICANT WEATHER AND OR OBSTRUCTIONS TO VISIBILITY.


SDZ038>040-050-052>070-300200-
SOUTHEAST SOUTH DAKOTA

CITY           SKY/WX    TMP DP  RH WIND       PRES   REMARKS
BROOKINGS      CLEAR     59  48  67 E7        30.35S
CHAMBERLAIN    CLEAR     60  48  65 SE8       30.30S
HURON          CLEAR     60  46  59 SE6       30.32R
MADISON        FAIR      55  46  71 E3        30.35F
MITCHELL       CLEAR     57  46  66 SE6       30.33S
SIOUX FALLS    CLEAR     58  48  69 E3        30.34S
WINNER         FAIR      57  45  64 SE9       30.28F
YANKTON        CLEAR     63  46  55 SE3       30.31F
$$

MNZ071-072-080-081-089-090-097-098-300200-
SOUTHWEST MINNESOTA

CITY           SKY/WX    TMP DP  RH WIND       PRES   REMARKS
FAIRMONT       CLEAR     58  48  69 NE6       30.37F
JACKSON        CLEAR     54  45  71 E5        30.38S
LUVERNE        CLEAR     55  45  67 CALM      30.36S
MARSHALL       CLEAR     58  48  69 E6        30.37F
MONTEVIDEO     CLEAR     54  46  76 SE6       30.39F
PIPESTONE      CLEAR     61  46  59 E3        30.36S
REDWOOD FALLS  CLEAR     59  47  64 NE3       30.38S
TRACY          CLEAR     56  50  80 CALM      30.38S
WINDOM         CLEAR     54  46  76 NE3       30.38S
WORTHINGTON    CLEAR     55  48  77 E6        30.38S
$$

IAZ001>003-012>014-020>022-031-032-NEZ013-014-SDZ071-300200-
NORTHWEST IOWA

CITY           SKY/WX    TMP DP  RH WIND       PRES   REMARKS
CHEROKEE       CLEAR     58  48  70 NE5       30.35S
DENISON        CLEAR     57  46  67 E6        30.32S
ESTHERVILLE    CLEAR     54  47  77 NE7       30.36F
LE MARS        CLEAR     63  48  59 E7        30.34F
SHELDON        CLEAR     55  48  76 NE6       30.34F
SIOUX CITY     CLEAR     64  48  56 E5        30.33S
SPENCER        CLEAR     56  46  69 NE5       30.36F
STORM LAKE     CLEAR     57  48  72 NE7       30.35S
$$

ABBREVIATIONS USED IN REMARKS
   TC - TEMPERATURE IN CELSIUS
  WCI - WIND CHILL INDEX
   HX - HEAT INDEX
  VSB - VISIBILITY





USA.gov is the U.S. government's official web portal to all federal, state and local government web resources and services.